Location: Zilina
(49.2170°N, 18.7330°E)
Time: 23:42:16
(UTC+02:00)

ISS - Pass Details

Date: 02 April 2019
Orbit: 408 x 410 km, 51.6° (Epoch: 26 April)

Event Time Altitude Azimuth Distance (km) Brightness Sun altitude
Rises 20:55:41 0° 289° (WNW) 2,339 1.8 -16.0°
Reaches altitude 10° 20:57:47 10° 288° (WNW) 1,475 0.3 -16.3°
Maximum altitude 21:01:05 73° 203° (SSW) 431 -3.8 -16.8°
Enters shadow 21:01:49 49° 134° (SE) 534 -3.7 -16.9°
